User: anonymous   Login
Location: Unspecified
(0.0000°N, 0.0000°E)
Time: 09:01:44
(UTC+00:00)
Language:

STARLINK-5686 - Orbit

View from above orbital plane
View from above orbital plane
View from above satellite
View from above satellite

Ground track
Ground track

The orbit is defined by the following mean orbital elements,

1 55450U          26145.35280639 +.00000000 +00000-0 +18948-4 0 00000
2 55450  43.0013 256.0380 0001431 273.4451  86.6238 15.27575197    03
Epoch (UTC): 25 May 2026 08:28:02
Eccentricity: 0.0001431
inclination: 43.0013°
perigee height: 482 km
apogee height: 484 km
right ascension of ascending node: 256.0380°
argument of perigee: 273.4451°
revolutions per day: 15.27575197
mean anomaly at epoch: 86.6238°

The dashed part of the orbit path shows where the satellite is in the earth's shadow,  

DLR